• En España
  • Lista de países
  • Para 7 días
  • Temperatura del agua
  • Mapa Satelital
  • El tiempo en el mapa
  • Informadores
  • user-avatar
    Iniciar sesión

    Tiempo cada hora Armawir

    Hoy, 15 Noviembre, Jueves

    Tiempo Temperatura Precipitaciones Viento Presión Humedad
    00:00 +8°C° 0.4 mm 3 mps 684 mmHg 73%
    01:00 +8°C° 0.4 mm 3 mps 684 mmHg 74%
    02:00 +8°C° 0.4 mm 3 mps 684 mmHg 75%
    03:00 +7°C° 0 mm 2 mps 684 mmHg 75%
    04:00 +7°C° 0.5 mm 2 mps 684 mmHg 76%
    05:00 +7°C° 0.5 mm 2 mps 684 mmHg 76%
    06:00 +7°C° 0.5 mm 3 mps 684 mmHg 76%
    07:00 +8°C° 0.3 mm 3 mps 684 mmHg 74%
    08:00 +9°C° 0.3 mm 3 mps 684 mmHg 72%
    09:00 +9°C° 0.3 mm 3 mps 685 mmHg 70%
    10:00 +10°C° 0.4 mm 3 mps 685 mmHg 69%
    11:00 +11°C° 0.4 mm 3 mps 685 mmHg 68%
    12:00 +11°C° 0.4 mm 3 mps 685 mmHg 67%
    13:00 +11°C° 0.4 mm 3 mps 685 mmHg 68%
    14:00 +12°C° 0.4 mm 2 mps 685 mmHg 68%
    15:00 +12°C° 0.4 mm 2 mps 685 mmHg 68%
    16:00 +12°C° 0.4 mm 2 mps 685 mmHg 71%
    17:00 +10°C° 0.4 mm 2 mps 685 mmHg 73%
    18:00 +10°C° 0.4 mm 1 mps 685 mmHg 75%
    19:00 +10°C° 0.5 mm 1 mps 686 mmHg 76%
    20:00 +10°C° 0.5 mm 1 mps 686 mmHg 76%
    21:00 +9°C° 0.5 mm 2 mps 686 mmHg 76%
    22:00 +9°C° 0.6 mm 2 mps 686 mmHg 77%
    23:00 +10°C° 0.6 mm 1 mps 686 mmHg 78%

    Mañana, 16 Noviembre, Viernes

    Tiempo Temperatura Precipitaciones Viento Presión Humedad
    00:00 +10°C° 0.6 mm 1 mps 686 mmHg 79%
    01:00 +8°C° 0.5 mm 2 mps 686 mmHg 79%
    02:00 +8°C° 0.5 mm 2 mps 686 mmHg 79%
    03:00 +8°C° 0.5 mm 2 mps 686 mmHg 79%
    04:00 +8°C° 0.2 mm 2 mps 686 mmHg 79%
    05:00 +8°C° 0.2 mm 2 mps 686 mmHg 78%
    06:00 +8°C° 0.2 mm 2 mps 686 mmHg 78%
    07:00 +9°C° 0.3 mm 2 mps 686 mmHg 76%
    08:00 +10°C° 0.3 mm 2 mps 687 mmHg 74%
    09:00 +10°C° 0.3 mm 2 mps 687 mmHg 72%
    10:00 +12°C° 0.3 mm 2 mps 687 mmHg 71%
    11:00 +13°C° 0.3 mm 2 mps 687 mmHg 70%
    12:00 +13°C° 0.3 mm 2 mps 687 mmHg 68%
    13:00 +13°C° 0.1 mm 2 mps 687 mmHg 67%
    14:00 +14°C° 0.1 mm 2 mps 687 mmHg 65%
    15:00 +14°C° 0.1 mm 2 mps 687 mmHg 64%
    16:00 +13°C° 0.1 mm 2 mps 687 mmHg 66%
    17:00 +12°C° 0.1 mm 2 mps 687 mmHg 68%
    18:00 +10°C° 0.1 mm 2 mps 687 mmHg 70%
    19:00 +10°C° 0.1 mm 2 mps 687 mmHg 70%
    20:00 +10°C° 0.1 mm 2 mps 687 mmHg 71%
    21:00 +10°C° 0.1 mm 2 mps 687 mmHg 72%
    22:00 +10°C° 0.2 mm 2 mps 687 mmHg 72%
    23:00 +10°C° 0.2 mm 2 mps 688 mmHg 73%

    Pasado mañana, 17 Noviembre, Sábado

    Tiempo Temperatura Precipitaciones Viento Presión Humedad
    00:00 +9°C° 0.2 mm 2 mps 688 mmHg 73%
    01:00 +9°C° 0.2 mm 2 mps 688 mmHg 74%
    02:00 +9°C° 0.2 mm 2 mps 688 mmHg 74%
    03:00 +9°C° 0.2 mm 2 mps 688 mmHg 75%
    04:00 +9°C° 0.1 mm 2 mps 688 mmHg 76%
    05:00 +9°C° 0.1 mm 2 mps 688 mmHg 76%
    06:00 +8°C° 0.1 mm 2 mps 688 mmHg 77%
    07:00 +9°C° 0 mm 2 mps 689 mmHg 74%
    08:00 +10°C° 0 mm 2 mps 689 mmHg 71%
    09:00 +12°C° 0 mm 2 mps 690 mmHg 68%
    10:00 +12°C° 0.1 mm 2 mps 690 mmHg 65%
    11:00 +12°C° 0.1 mm 3 mps 690 mmHg 62%
    12:00 +13°C° 0.1 mm 3 mps 689 mmHg 59%
    13:00 +13°C° 0.1 mm 3 mps 689 mmHg 58%
    14:00 +12°C° 0.1 mm 3 mps 689 mmHg 57%
    15:00 +12°C° 0.1 mm 3 mps 689 mmHg 55%
    16:00 +12°C° 0 mm 2 mps 689 mmHg 58%
    17:00 +10°C° 0 mm 2 mps 690 mmHg 60%
    18:00 +9°C° 0 mm 2 mps 690 mmHg 63%
    19:00 +9°C° 0 mm 2 mps 690 mmHg 63%
    20:00 +8°C° 0 mm 2 mps 690 mmHg 63%
    21:00 +9°C° 0 mm 1 mps 690 mmHg 63%
    22:00 +8°C° 0 mm 2 mps 690 mmHg 64%
    23:00 +7°C° 0 mm 2 mps 690 mmHg 64%

    18 Noviembre, Domingo

    Tiempo Temperatura Precipitaciones Viento Presión Humedad
    00:00 +7°C° 0 mm 2 mps 690 mmHg 65%
    01:00 +7°C° 0 mm 2 mps 690 mmHg 66%
    02:00 +6°C° 0 mm 2 mps 690 mmHg 66%
    03:00 +7°C° 0 mm 1 mps 690 mmHg 67%
    04:00 +7°C° 0 mm 1 mps 690 mmHg 67%
    05:00 +6°C° 0 mm 1 mps 690 mmHg 68%
    06:00 +6°C° 0 mm 1 mps 689 mmHg 69%
    07:00 +7°C° 0 mm 1 mps 690 mmHg 66%
    08:00 +7°C° 0 mm 2 mps 690 mmHg 63%
    09:00 +8°C° 0 mm 2 mps 690 mmHg 61%
    10:00 +9°C° 0 mm 2 mps 689 mmHg 59%
    11:00 +9°C° 0 mm 2 mps 689 mmHg 57%
    12:00 +10°C° 0 mm 2 mps 689 mmHg 55%
    13:00 +10°C° 0 mm 2 mps 688 mmHg 55%
    14:00 +10°C° 0 mm 2 mps 688 mmHg 54%
    15:00 +10°C° 0 mm 2 mps 688 mmHg 54%
    16:00 +10°C° 0.1 mm 2 mps 688 mmHg 57%
    17:00 +9°C° 0.1 mm 2 mps 688 mmHg 59%
    18:00 +9°C° 0.1 mm 1 mps 688 mmHg 62%
    19:00 +9°C° 0.1 mm 1 mps 688 mmHg 63%
    20:00 +8°C° 0.1 mm 1 mps 688 mmHg 64%
    21:00 +8°C° 0.1 mm 1 mps 689 mmHg 65%
    22:00 +8°C° 0 mm 1 mps 688 mmHg 65%
    23:00 +7°C° 0 mm 1 mps 688 mmHg 66%

    19 Noviembre, Lunes

    Tiempo Temperatura Precipitaciones Viento Presión Humedad
    00:00 +7°C° 0 mm 1 mps 688 mmHg 66%
    01:00 +7°C° 0 mm 1 mps 688 mmHg 66%
    02:00 +6°C° 0 mm 1 mps 688 mmHg 66%
    03:00 +6°C° 0 mm 1 mps 688 mmHg 66%
    04:00 +6°C° 0 mm 1 mps 688 mmHg 67%
    05:00 +6°C° 0 mm 1 mps 688 mmHg 67%
    06:00 +6°C° 0 mm 1 mps 688 mmHg 67%
    07:00 +7°C° 0 mm 1 mps 688 mmHg 64%
    08:00 +8°C° 0 mm 1 mps 689 mmHg 61%
    09:00 +9°C° 0 mm 1 mps 689 mmHg 58%
    10:00 +10°C° 0 mm 2 mps 689 mmHg 56%
    11:00 +12°C° 0 mm 2 mps 689 mmHg 54%
    12:00 +13°C° 0 mm 2 mps 688 mmHg 52%
    13:00 +13°C° 0 mm 2 mps 688 mmHg 52%
    14:00 +13°C° 0 mm 2 mps 688 mmHg 51%
    15:00 +12°C° 0 mm 3 mps 688 mmHg 50%
    16:00 +12°C° 0.1 mm 2 mps 688 mmHg 53%
    17:00 +10°C° 0.1 mm 2 mps 688 mmHg 56%
    18:00 +9°C° 0.1 mm 2 mps 688 mmHg 59%
    19:00 +9°C° 0 mm 2 mps 688 mmHg 59%
    20:00 +9°C° 0 mm 2 mps 688 mmHg 60%
    21:00 +10°C° 0 mm 1 mps 689 mmHg 61%
    22:00 +10°C° 0 mm 1 mps 689 mmHg 61%
    23:00 +9°C° 0 mm 1 mps 688 mmHg 62%

    20 Noviembre, Martes

    Tiempo Temperatura Precipitaciones Viento Presión Humedad
    00:00 +9°C° 0 mm 1 mps 688 mmHg 63%
    01:00 +9°C° 0 mm 1 mps 688 mmHg 63%
    02:00 +9°C° 0 mm 1 mps 688 mmHg 63%
    03:00 +8°C° 0 mm 1 mps 688 mmHg 64%
    04:00 +8°C° 0 mm 1 mps 688 mmHg 64%
    05:00 +8°C° 0 mm 1 mps 688 mmHg 64%
    06:00 +8°C° 0 mm 1 mps 688 mmHg 65%
    07:00 +9°C° 0 mm 1 mps 688 mmHg 62%
    08:00 +10°C° 0 mm 1 mps 689 mmHg 60%
    09:00 +11°C° 0 mm 1 mps 689 mmHg 58%
    10:00 +12°C° 0 mm 1 mps 689 mmHg 57%
    11:00 +12°C° 0 mm 1 mps 688 mmHg 56%
    12:00 +13°C° 0 mm 1 mps 688 mmHg 55%
    13:00 +13°C° 0.1 mm 1 mps 688 mmHg 55%
    14:00 +13°C° 0.1 mm 1 mps 688 mmHg 55%
    15:00 +13°C° 0.1 mm 1 mps 687 mmHg 55%
    16:00 +12°C° 0 mm 1 mps 688 mmHg 58%
    17:00 +11°C° 0 mm 1 mps 688 mmHg 60%
    18:00 +10°C° 0 mm 1 mps 688 mmHg 63%
    19:00 +10°C° 0 mm 1 mps 688 mmHg 64%
    20:00 +10°C° 0 mm 1 mps 689 mmHg 64%
    21:00 +10°C° 0 mm 1 mps 689 mmHg 65%
    22:00 +9°C° 0 mm 1 mps 689 mmHg 66%
    23:00 +9°C° 0 mm 1 mps 689 mmHg 67%
    Mostrar más